Content
SEND FEEDBACK

Daily
Averages
Monthly
Summary
United States of America

CHAMPAIGN, ILLINOIS


Home > North America > United States > Illinois
Elevation: 736 feet     Latitude: 40 05N     Longitude: 088 13W

WEATHER
 
SELECT A DAY
Number of Records: 198,519;   Date Range: 1/1/95 - 10/20/14
 
SHARE

PRINT THIS DATA

[ ← Previous Day ]
WEATHER ALMANAC - AUGUST 18, 2014
[ Next Day → ]
[ °C ]   °F
Weather ElementAverageHighLow
Temperature71 °F81 °F (2:53 pm)64.9 °F (5:53 am)
Dewpoint67.2 °F70 °F (11:53 am)64.9 °F (3:53 am)
Humidity88.9 %100 % (3:34 am)67 % (3:53 pm)
Barometer29.89 in29.92 in (6:53 pm)29.81 in (6:53 pm)
Wind Speed5.3 mph10.4 mph (4:38 am)
Weather ElementAverage
Visibility4.5 mi
Wind DirectionENE (77.1 °)

Weather ElementTotal
Precipitation---
Cooling Degree Days8 (Base 65)
Growing Degree Days23 (Base 50)
Averaged from 38 records on August 18, 2014
WEATHER CONDITIONS BREAKOUT
WIND DIRECTION BREAKOUT
WEATHER BY HOUR - AUGUST 18, 2014
[ °C ]   °F
Local TimeTemperatureDewpointHumidityBarometerVisibilityWind DirectionWind SpeedGust SpeedPrecipitationEventsConditions
12:20 AM68.0 °F66.0 °F93 %29.92 in4.0 miNE (40°)9.2 mphPartly Cloudy
12:44 AM66.9 °F66.0 °F97 %29.91 in3.0 miNE (50°)10.4 mphMostly Cloudy
12:53 AM66.9 °F66.0 °F97 %29.91 in3.0 miNE (40°)10.4 mphMostly Cloudy
1:27 AM66.9 °F66.0 °F97 %29.91 in2.5 miNE (50°)8.1 mphOvercast
2:12 AM66.9 °F66.0 °F97 %29.90 in1.5 miNE (40°)8.1 mphOvercast
2:53 AM66.9 °F66.0 °F97 %29.88 in1.2 miNE (50°)5.8 mphOvercast
3:18 AM66.9 °F66.0 °F97 %29.90 in0.8 miNE (50°)4.6 mphOvercast
3:34 AM66.0 °F66.0 °F100 %29.90 in0.5 miNE (50°)3.5 mphFogFog
3:53 AM66.0 °F66.0 °F100 %29.89 in0.5 miCalmFogFog
4:05 AM66.0 °F66.0 °F100 %29.90 in0.2 miNorth (360°)4.6 mphFogFog
4:53 AM66.0 °F64.9 °F96 %29.90 in0.5 miNorth (360°)6.9 mphFogFog
5:53 AM66.0 °F64.9 °F96 %29.89 in0.5 miNNE (20°)3.5 mphFogFog
6:25 AM66.0 °F64.9 °F96 %29.90 in0.2 miNNE (20°)6.9 mphFogFog
6:53 AM64.9 °F64.9 °F100 %29.89 in0.2 miNNE (20°)8.1 mphFogFog
7:53 AM66.0 °F66.0 °F100 %29.90 in0.2 miNE (40°)4.6 mphFogFog
8:09 AM66.0 °F66.0 °F100 %29.92 in0.5 miNorth (10°)4.6 mphFogFog
8:49 AM66.2 °F66.2 °F100 %29.92 in0.5 miNE (40°)5.8 mphOvercast
8:53 AM66.9 °F66.0 °F97 %29.90 in0.5 miNNE (30°)5.8 mphOvercast
9:04 AM66.9 °F66.0 °F97 %29.91 in0.5 miNE (40°)5.8 mphOvercast
9:53 AM68.0 °F66.0 °F93 %29.91 in4.0 miNNE (30°)6.9 mphOvercast
10:26 AM72.0 °F68.0 °F87 %29.91 in6.0 miENE (60°)8.1 mphOvercast
10:50 AM73.4 °F68.0 °F83 %29.92 in8.0 miENE (60°)4.6 mphScattered Clouds
10:53 AM73.0 °F68.0 °F84 %29.91 in8.0 miENE (70°)6.9 mphScattered Clouds
11:53 AM75.0 °F69.1 °F82 %29.90 in9.0 miEast (80°)5.8 mphOvercast
12:30 PM77.0 °F70.0 °F79 %29.91 in10.0 miVariable3.5 mphMostly Cloudy
12:46 PM77.0 °F70.0 °F79 %29.91 in10.0 miSE (130°)5.8 mphOvercast
12:53 PM78.1 °F70.0 °F76 %29.89 in9.0 miVariable5.8 mphOvercast
1:33 PM80.1 °F70.0 °F71 %29.90 in10.0 miSSE (160°)5.8 mphOvercast
1:53 PM79.0 °F69.1 °F72 %29.88 in10.0 miCalmMostly Cloudy
2:53 PM81.0 °F70.0 °F69 %29.86 in10.0 miVariable3.5 mphPartly Cloudy
3:53 PM81.0 °F69.1 °F67 %29.85 in10.0 miWSW (240°)5.8 mphMostly Cloudy
4:53 PM81.0 °F69.1 °F67 %29.84 in10.0 miVariable3.5 mphScattered Clouds
5:53 PM81.0 °F69.1 °F67 %29.83 in9.0 miWest (260°)4.6 mphClear
6:53 PM79.0 °F70.0 °F74 %29.81 in8.0 miCalmClear
7:53 PM73.0 °F70.0 °F90 %29.82 in6.0 miCalmClear
8:53 PM70.0 °F66.9 °F90 %29.82 in6.0 miSouth (180°)3.5 mphClear
9:53 PM69.1 °F66.9 °F93 %29.83 in4.0 miSouth (180°)4.6 mphClear
11:53 PM66.9 °F66.0 °F97 %29.83 in4.0 miSouth (170°)5.8 mphClear
Hourly data recorded from KCMI, located miles away from Champaign, Illinois







STORIES FROM OUR PARTNERS